Location: Niedergestelen
(46.3129°N, 7.7822°E)
Time: 19:01:21
(UTC+00:00)

X-37B - Pass Details

Date: 26 September 2021
Orbit: 385 x 389 km, 45.0° (Epoch: 17 October)

Event Time Altitude Azimuth Distance (km) Brightness Sun altitude
Exits shadow 04:17:32 20° 253° (WSW) 956 1.9 -11.7°
Maximum altitude 04:19:33 67° 174° (S) 424 0.7 -11.4°
Drops below altitude 10° 04:22:43 10° 91° (E) 1,416 4.9 -10.8°
Sets 04:24:48 0° 89° (E) 2,272 6.6 -10.5°
